When you browse on this site, cookies collect data to enhance your experience and personalize the content and advertising you see.
Visit our Privacy Policy to learn more. By continuing to use the site, you agree to this use of cookies and data.

Météo par heure à Aguililla

Ce jour, 6 Juillet, Lundi

Heure Température Précipitation Vent Pression Humidité
00:00 +21°C° 0.1 mm 1 m/s 675 mmHg 90%
01:00 +21°C° 0.1 mm 1 m/s 675 mmHg 90%
02:00 +21°C° 0.1 mm 1 m/s 675 mmHg 89%
03:00 +18°C° 0 mm 0 m/s 675 mmHg 89%
04:00 +18°C° 0 mm 0 m/s 675 mmHg 89%
05:00 +18°C° 0 mm 0 m/s 675 mmHg 88%
06:00 +20°C° 0 mm 0 m/s 675 mmHg 84%
07:00 +24°C° 0 mm 1 m/s 676 mmHg 80%
08:00 +25°C° 0 mm 1 m/s 677 mmHg 76%
09:00 +27°C° 0 mm 1 m/s 677 mmHg 69%
10:00 +29°C° 0 mm 1 m/s 677 mmHg 62%
11:00 +31°C° 0 mm 1 m/s 678 mmHg 54%
12:00 +31°C° 0.2 mm 1 m/s 677 mmHg 55%
13:00 +32°C° 0.2 mm 1 m/s 677 mmHg 55%
14:00 +32°C° 0.2 mm 1 m/s 676 mmHg 55%
15:00 +31°C° 0.5 mm 1 m/s 676 mmHg 62%
16:00 +29°C° 0.5 mm 1 m/s 675 mmHg 68%
17:00 +28°C° 0.5 mm 1 m/s 674 mmHg 74%
18:00 +27°C° 0.2 mm 1 m/s 675 mmHg 80%
19:00 +25°C° 0.2 mm 1 m/s 675 mmHg 85%
20:00 +23°C° 0.2 mm 2 m/s 676 mmHg 91%
21:00 +23°C° 0.6 mm 1 m/s 676 mmHg 92%
22:00 +22°C° 0.6 mm 1 m/s 676 mmHg 92%
23:00 +22°C° 0.6 mm 1 m/s 676 mmHg 93%

Demain, 7 Juillet, Mardi

Heure Température Précipitation Vent Pression Humidité
00:00 +21°C° 0.3 mm 1 m/s 676 mmHg 92%
01:00 +21°C° 0.3 mm 1 m/s 676 mmHg 92%
02:00 +20°C° 0.3 mm 1 m/s 675 mmHg 91%
03:00 +20°C° 0 mm 1 m/s 675 mmHg 91%
04:00 +20°C° 0 mm 1 m/s 675 mmHg 90%
05:00 +18°C° 0 mm 0 m/s 676 mmHg 89%
06:00 +21°C° 0 mm 1 m/s 676 mmHg 86%
07:00 +23°C° 0 mm 1 m/s 677 mmHg 83%
08:00 +24°C° 0 mm 1 m/s 677 mmHg 80%
09:00 +26°C° 0 mm 1 m/s 677 mmHg 73%
10:00 +28°C° 0 mm 1 m/s 677 mmHg 65%
11:00 +29°C° 0 mm 0 m/s 678 mmHg 58%
12:00 +30°C° 0.6 mm 1 m/s 677 mmHg 61%
13:00 +30°C° 0.6 mm 1 m/s 676 mmHg 63%
14:00 +30°C° 0.6 mm 1 m/s 676 mmHg 66%
15:00 +29°C° 1.2 mm 1 m/s 675 mmHg 72%
16:00 +27°C° 1.2 mm 1 m/s 675 mmHg 77%
17:00 +26°C° 1.2 mm 2 m/s 675 mmHg 83%
18:00 +25°C° 0.2 mm 2 m/s 675 mmHg 86%
19:00 +23°C° 0.2 mm 2 m/s 675 mmHg 90%
20:00 +21°C° 0.2 mm 2 m/s 675 mmHg 93%
21:00 +22°C° 0.6 mm 1 m/s 675 mmHg 94%
22:00 +22°C° 0.6 mm 1 m/s 676 mmHg 95%
23:00 +21°C° 0.6 mm 1 m/s 676 mmHg 96%

Après-demain, 8 Juillet, Mercredi

Heure Température Précipitation Vent Pression Humidité
00:00 +21°C° 0.5 mm 1 m/s 676 mmHg 96%
01:00 +21°C° 0.5 mm 1 m/s 676 mmHg 96%
02:00 +21°C° 0.5 mm 1 m/s 676 mmHg 96%
03:00 +21°C° 0.1 mm 1 m/s 675 mmHg 96%
04:00 +19°C° 0.1 mm 0 m/s 675 mmHg 97%
05:00 +19°C° 0.1 mm 0 m/s 675 mmHg 97%
06:00 +20°C° 0.3 mm 0 m/s 676 mmHg 95%
07:00 +20°C° 0.3 mm 0 m/s 676 mmHg 93%
08:00 +23°C° 0.3 mm 1 m/s 677 mmHg 91%
09:00 +23°C° 1.1 mm 1 m/s 677 mmHg 92%
10:00 +23°C° 1.1 mm 1 m/s 677 mmHg 93%
11:00 +23°C° 1.1 mm 1 m/s 677 mmHg 93%
12:00 +23°C° 0.9 mm 1 m/s 677 mmHg 93%
13:00 +23°C° 0.9 mm 1 m/s 676 mmHg 92%
14:00 +21°C° 0.9 mm 0 m/s 676 mmHg 92%
15:00 +21°C° 0.3 mm 0 m/s 676 mmHg 91%
16:00 +21°C° 0.3 mm 0 m/s 676 mmHg 90%
17:00 +21°C° 0.3 mm 0 m/s 676 mmHg 90%
18:00 +21°C° 0.2 mm 0 m/s 676 mmHg 91%
19:00 +20°C° 0.2 mm 0 m/s 676 mmHg 92%
20:00 +19°C° 0.2 mm 0 m/s 676 mmHg 94%
21:00 +19°C° 0 mm 0 m/s 676 mmHg 93%
22:00 +19°C° 0 mm 0 m/s 677 mmHg 92%
23:00 +19°C° 0 mm 0 m/s 677 mmHg 91%

9 Juillet, Jeudi

Heure Température Précipitation Vent Pression Humidité
00:00 +19°C° 0.1 mm 0 m/s 676 mmHg 92%
01:00 +19°C° 0.1 mm 0 m/s 676 mmHg 93%
02:00 +19°C° 0.1 mm 0 m/s 676 mmHg 94%
03:00 +19°C° 0.1 mm 0 m/s 675 mmHg 95%
04:00 +19°C° 0.1 mm 0 m/s 675 mmHg 95%
05:00 +19°C° 0.1 mm 0 m/s 675 mmHg 96%
06:00 +20°C° 0 mm 0 m/s 676 mmHg 93%
07:00 +21°C° 0 mm 0 m/s 676 mmHg 89%
08:00 +22°C° 0 mm 0 m/s 677 mmHg 85%
09:00 +24°C° 0 mm 0 m/s 677 mmHg 77%
10:00 +26°C° 0 mm 0 m/s 678 mmHg 68%
11:00 +28°C° 0 mm 0 m/s 678 mmHg 59%
12:00 +29°C° 0.7 mm 1 m/s 677 mmHg 63%
13:00 +29°C° 0.7 mm 1 m/s 677 mmHg 68%
14:00 +28°C° 0.7 mm 1 m/s 676 mmHg 72%
15:00 +27°C° 0.5 mm 1 m/s 676 mmHg 76%
16:00 +26°C° 0.5 mm 1 m/s 675 mmHg 81%
17:00 +24°C° 0.5 mm 1 m/s 675 mmHg 85%
18:00 +24°C° 0 mm 1 m/s 675 mmHg 83%
19:00 +23°C° 0 mm 1 m/s 676 mmHg 81%
20:00 +22°C° 0 mm 1 m/s 676 mmHg 79%
21:00 +22°C° 0 mm 1 m/s 676 mmHg 78%
22:00 +22°C° 0 mm 1 m/s 676 mmHg 77%
23:00 +22°C° 0 mm 1 m/s 677 mmHg 76%

10 Juillet, Vendredi

Heure Température Précipitation Vent Pression Humidité
00:00 +22°C° 0 mm 1 m/s 676 mmHg 77%
01:00 +21°C° 0 mm 1 m/s 676 mmHg 79%
02:00 +21°C° 0 mm 1 m/s 675 mmHg 80%
03:00 +19°C° 0 mm 0 m/s 675 mmHg 80%
04:00 +19°C° 0 mm 0 m/s 676 mmHg 80%
05:00 +19°C° 0 mm 0 m/s 676 mmHg 81%
06:00 +21°C° 0 mm 0 m/s 676 mmHg 79%
07:00 +24°C° 0 mm 1 m/s 677 mmHg 76%
08:00 +25°C° 0 mm 1 m/s 677 mmHg 74%
09:00 +27°C° 0 mm 1 m/s 678 mmHg 67%
10:00 +29°C° 0 mm 1 m/s 678 mmHg 60%
11:00 +31°C° 0 mm 1 m/s 678 mmHg 53%
12:00 +31°C° 0 mm 1 m/s 678 mmHg 51%
13:00 +32°C° 0 mm 1 m/s 677 mmHg 48%
14:00 +33°C° 0 mm 1 m/s 677 mmHg 45%
15:00 +32°C° 0.1 mm 1 m/s 677 mmHg 51%
16:00 +31°C° 0.1 mm 1 m/s 676 mmHg 58%
17:00 +28°C° 0.1 mm 0 m/s 676 mmHg 64%
18:00 +28°C° 0 mm 1 m/s 676 mmHg 67%
19:00 +26°C° 0 mm 1 m/s 676 mmHg 71%
20:00 +24°C° 0 mm 1 m/s 676 mmHg 75%
21:00 +24°C° 0 mm 1 m/s 676 mmHg 73%
22:00 +23°C° 0 mm 1 m/s 676 mmHg 71%
23:00 +23°C° 0 mm 1 m/s 676 mmHg 69%

11 Juillet, Samedi

Heure Température Précipitation Vent Pression Humidité
00:00 +23°C° 0 mm 1 m/s 676 mmHg 70%
01:00 +22°C° 0 mm 1 m/s 675 mmHg 72%
02:00 +20°C° 0 mm 0 m/s 675 mmHg 73%
03:00 +20°C° 0.1 mm 0 m/s 675 mmHg 76%
04:00 +19°C° 0.1 mm 0 m/s 675 mmHg 78%
05:00 +19°C° 0.1 mm 0 m/s 676 mmHg 81%
06:00 +23°C° 0 mm 1 m/s 676 mmHg 78%
07:00 +25°C° 0 mm 1 m/s 677 mmHg 76%
08:00 +26°C° 0 mm 1 m/s 677 mmHg 74%
09:00 +28°C° 0.1 mm 1 m/s 678 mmHg 68%
10:00 +30°C° 0.1 mm 1 m/s 678 mmHg 61%
11:00 +32°C° 0.1 mm 1 m/s 678 mmHg 55%
12:00 +32°C° 0.4 mm 1 m/s 678 mmHg 55%
13:00 +32°C° 0.4 mm 1 m/s 677 mmHg 55%
14:00 +32°C° 0.4 mm 1 m/s 676 mmHg 55%
15:00 +32°C° 0.1 mm 1 m/s 676 mmHg 59%
16:00 +31°C° 0.1 mm 1 m/s 676 mmHg 63%
17:00 +28°C° 0.1 mm 0 m/s 675 mmHg 67%
18:00 +28°C° 0.1 mm 1 m/s 675 mmHg 71%
19:00 +27°C° 0.1 mm 1 m/s 675 mmHg 76%
20:00 +25°C° 0.1 mm 1 m/s 675 mmHg 81%
21:00 +24°C° 0.2 mm 1 m/s 675 mmHg 80%
22:00 +24°C° 0.2 mm 1 m/s 676 mmHg 80%
23:00 +24°C° 0.2 mm 1 m/s 676 mmHg 80%
Voir plus